Location: Rounton
(54.4000°N, 1.3500°W)
Time: 08:58:47
(UTC+01:00)

deb Agena D - Pass Details

Date: 18 June 2023
Orbit: 996 x 1023 km, 100.1° (Epoch: 29 September)

Event Time Altitude Azimuth Distance (km) Brightness Sun altitude
Exits shadow 01:49:31 15° 190° (S) 2,403 ? -11.7°
Maximum altitude 01:54:27 48° 260° (W) 1,289 ? -11.5°
Drops below altitude 10° 02:00:28 10° 334° (NNW) 2,777 ? -11.3°
Sets 02:03:04 0° 340° (NNW) 3,731 ? -11.3°
